Location: Buena Vista Lake
(37.6001°N, 119.5170°W)
Time: 12:39:11
(UTC+00:00)

Thor Agena Rocket - Pass Details

Date: 05 August 2024
Orbit: 756 x 804 km, 99.1° (Epoch: 16 September)

Event Time Altitude Azimuth Distance (km) Brightness Sun altitude
Rises 12:02:29 0° 13° (NNE) 3,230 7.5 -12.0°
Reaches altitude 10° 12:04:48 10° 13° (NNE) 2,296 6.7 -11.6°
Maximum altitude 12:09:51 89° 289° (WNW) 762 3.5 -10.8°
Drops below altitude 10° 12:14:52 10° 196° (SSW) 2,275 5.5 -9.9°
Enters shadow 12:16:40 - 196° (SSW) 3,001 6.1 -9.6°
